When you browse on this site, cookies collect data to enhance your experience and personalize the content and advertising you see.
Visit our Privacy Policy to learn more. By continuing to use the site, you agree to this use of cookies and data.
  • In Österreich
  • Länderverzeichnis
  • Für 7 Tage
  • Wassertemperatur
  • Satellitenkarten
  • Wetterkarte
  • News
  • Widgets
  • user-avatar
    Anmelden

    Stündliche Wetter Lagvoschi

    Heute, 21 Juli, Sonntag

    Zeit Temperatur Niederschläge Wind Luftdruck Luftfeuchtigkeit
    00:00 +16°C° 0.1 mm 0 m/S 751 mmHg 85%
    01:00 +16°C° 0.1 mm 0 m/S 751 mmHg 86%
    02:00 +16°C° 0 mm 1 m/S 752 mmHg 85%
    03:00 +16°C° 0 mm 1 m/S 752 mmHg 85%
    04:00 +15°C° 0 mm 0 m/S 752 mmHg 86%
    05:00 +15°C° 0 mm 0 m/S 752 mmHg 87%
    06:00 +17°C° 0 mm 0 m/S 752 mmHg 81%
    07:00 +21°C° 0 mm 1 m/S 752 mmHg 76%
    08:00 +23°C° 0 mm 1 m/S 752 mmHg 72%
    09:00 +25°C° 0.1 mm 1 m/S 752 mmHg 66%
    10:00 +26°C° 0.1 mm 1 m/S 752 mmHg 61%
    11:00 +27°C° 0.1 mm 1 m/S 752 mmHg 55%
    12:00 +28°C° 0.1 mm 1 m/S 752 mmHg 53%
    13:00 +28°C° 0.1 mm 1 m/S 751 mmHg 51%
    14:00 +27°C° 0.1 mm 0 m/S 751 mmHg 49%
    15:00 +27°C° 0 mm 0 m/S 751 mmHg 51%
    16:00 +26°C° 0 mm 0 m/S 751 mmHg 52%
    17:00 +28°C° 0 mm 1 m/S 751 mmHg 54%
    18:00 +26°C° 0 mm 1 m/S 751 mmHg 60%
    19:00 +25°C° 0 mm 1 m/S 750 mmHg 66%
    20:00 +23°C° 0 mm 1 m/S 750 mmHg 72%
    21:00 +22°C° 0.2 mm 1 m/S 750 mmHg 76%
    22:00 +20°C° 0.2 mm 2 m/S 750 mmHg 80%
    23:00 +20°C° 0.2 mm 2 m/S 750 mmHg 84%

    Morgen, 22 Juli, Montag

    Zeit Temperatur Niederschläge Wind Luftdruck Luftfeuchtigkeit
    00:00 +19°C° 0.1 mm 2 m/S 750 mmHg 86%
    01:00 +20°C° 0.1 mm 1 m/S 750 mmHg 88%
    02:00 +20°C° 0.1 mm 1 m/S 750 mmHg 90%
    03:00 +19°C° 0.4 mm 1 m/S 750 mmHg 92%
    04:00 +19°C° 0.4 mm 1 m/S 750 mmHg 94%
    05:00 +18°C° 0.4 mm 2 m/S 749 mmHg 96%
    06:00 +18°C° 0.3 mm 2 m/S 749 mmHg 96%
    07:00 +18°C° 0.3 mm 2 m/S 750 mmHg 95%
    08:00 +19°C° 0.3 mm 3 m/S 750 mmHg 95%
    09:00 +19°C° 0.8 mm 2 m/S 750 mmHg 92%
    10:00 +20°C° 0.8 mm 2 m/S 750 mmHg 88%
    11:00 +22°C° 0.8 mm 1 m/S 750 mmHg 85%
    12:00 +21°C° 0.9 mm 2 m/S 750 mmHg 83%
    13:00 +22°C° 0.9 mm 3 m/S 750 mmHg 82%
    14:00 +24°C° 0.9 mm 3 m/S 750 mmHg 80%
    15:00 +23°C° 0.6 mm 4 m/S 750 mmHg 80%
    16:00 +23°C° 0.6 mm 4 m/S 750 mmHg 79%
    17:00 +23°C° 0.6 mm 4 m/S 750 mmHg 79%
    18:00 +21°C° 0.1 mm 3 m/S 750 mmHg 82%
    19:00 +20°C° 0.1 mm 3 m/S 750 mmHg 86%
    20:00 +19°C° 0.1 mm 3 m/S 750 mmHg 89%
    21:00 +18°C° 0 mm 3 m/S 750 mmHg 91%
    22:00 +17°C° 0 mm 3 m/S 750 mmHg 93%
    23:00 +17°C° 0 mm 3 m/S 750 mmHg 95%

    übermorgen, 23 Juli, Dienstag

    Zeit Temperatur Niederschläge Wind Luftdruck Luftfeuchtigkeit
    00:00 +16°C° 0 mm 3 m/S 750 mmHg 94%
    01:00 +14°C° 0 mm 3 m/S 750 mmHg 94%
    02:00 +14°C° 0 mm 3 m/S 750 mmHg 94%
    03:00 +13°C° 0 mm 3 m/S 750 mmHg 95%
    04:00 +13°C° 0 mm 3 m/S 750 mmHg 96%
    05:00 +12°C° 0 mm 3 m/S 750 mmHg 97%
    06:00 +13°C° 0 mm 3 m/S 750 mmHg 94%
    07:00 +14°C° 0 mm 3 m/S 750 mmHg 90%
    08:00 +15°C° 0 mm 4 m/S 750 mmHg 87%
    09:00 +15°C° 0 mm 4 m/S 750 mmHg 86%
    10:00 +17°C° 0 mm 4 m/S 750 mmHg 84%
    11:00 +18°C° 0 mm 4 m/S 750 mmHg 82%
    12:00 +18°C° 0 mm 4 m/S 750 mmHg 80%
    13:00 +19°C° 0 mm 4 m/S 750 mmHg 78%
    14:00 +20°C° 0 mm 4 m/S 749 mmHg 75%
    15:00 +20°C° 0.1 mm 3 m/S 749 mmHg 76%
    16:00 +20°C° 0.1 mm 3 m/S 749 mmHg 78%
    17:00 +20°C° 0.1 mm 2 m/S 749 mmHg 79%
    18:00 +19°C° 0.1 mm 2 m/S 749 mmHg 84%
    19:00 +18°C° 0.1 mm 2 m/S 749 mmHg 89%
    20:00 +17°C° 0.1 mm 2 m/S 749 mmHg 94%
    21:00 +17°C° 0 mm 2 m/S 749 mmHg 95%
    22:00 +16°C° 0 mm 2 m/S 749 mmHg 96%
    23:00 +16°C° 0 mm 2 m/S 749 mmHg 97%

    24 Juli, Mittwoch

    Zeit Temperatur Niederschläge Wind Luftdruck Luftfeuchtigkeit
    00:00 +16°C° 0 mm 2 m/S 749 mmHg 97%
    01:00 +15°C° 0 mm 2 m/S 749 mmHg 97%
    02:00 +15°C° 0 mm 2 m/S 749 mmHg 97%
    03:00 +15°C° 0 mm 2 m/S 749 mmHg 97%
    04:00 +15°C° 0 mm 2 m/S 749 mmHg 97%
    05:00 +15°C° 0 mm 2 m/S 750 mmHg 97%
    06:00 +16°C° 0 mm 2 m/S 750 mmHg 92%
    07:00 +18°C° 0 mm 2 m/S 750 mmHg 88%
    08:00 +20°C° 0 mm 3 m/S 750 mmHg 83%
    09:00 +21°C° 0 mm 3 m/S 750 mmHg 75%
    10:00 +24°C° 0 mm 3 m/S 750 mmHg 68%
    11:00 +26°C° 0 mm 4 m/S 750 mmHg 60%
    12:00 +26°C° 0 mm 4 m/S 750 mmHg 58%
    13:00 +27°C° 0 mm 4 m/S 750 mmHg 56%
    14:00 +27°C° 0 mm 4 m/S 750 mmHg 54%
    15:00 +27°C° 0 mm 4 m/S 750 mmHg 56%
    16:00 +27°C° 0 mm 4 m/S 750 mmHg 59%
    17:00 +26°C° 0 mm 4 m/S 750 mmHg 61%
    18:00 +25°C° 0 mm 3 m/S 750 mmHg 67%
    19:00 +22°C° 0 mm 3 m/S 750 mmHg 74%
    20:00 +20°C° 0 mm 3 m/S 750 mmHg 80%
    21:00 +19°C° 0 mm 2 m/S 751 mmHg 82%
    22:00 +18°C° 0 mm 2 m/S 751 mmHg 85%
    23:00 +18°C° 0 mm 2 m/S 752 mmHg 87%

    25 Juli, Donnerstag

    Zeit Temperatur Niederschläge Wind Luftdruck Luftfeuchtigkeit
    00:00 +17°C° 0 mm 2 m/S 752 mmHg 88%
    01:00 +17°C° 0 mm 2 m/S 752 mmHg 90%
    02:00 +16°C° 0 mm 2 m/S 752 mmHg 92%
    03:00 +16°C° 0 mm 2 m/S 752 mmHg 92%
    04:00 +16°C° 0 mm 2 m/S 752 mmHg 92%
    05:00 +16°C° 0 mm 2 m/S 752 mmHg 92%
    06:00 +17°C° 0 mm 2 m/S 753 mmHg 86%
    07:00 +19°C° 0 mm 2 m/S 753 mmHg 80%
    08:00 +21°C° 0 mm 2 m/S 753 mmHg 73%
    09:00 +24°C° 0 mm 3 m/S 753 mmHg 66%
    10:00 +25°C° 0 mm 3 m/S 753 mmHg 59%
    11:00 +27°C° 0 mm 3 m/S 753 mmHg 52%
    12:00 +27°C° 0 mm 3 m/S 753 mmHg 51%
    13:00 +28°C° 0 mm 4 m/S 753 mmHg 50%
    14:00 +28°C° 0 mm 4 m/S 752 mmHg 50%
    15:00 +28°C° 0 mm 3 m/S 752 mmHg 53%
    16:00 +28°C° 0 mm 3 m/S 752 mmHg 56%
    17:00 +27°C° 0 mm 3 m/S 752 mmHg 59%
    18:00 +26°C° 0 mm 3 m/S 752 mmHg 67%
    19:00 +24°C° 0 mm 3 m/S 752 mmHg 74%
    20:00 +21°C° 0 mm 2 m/S 752 mmHg 81%
    21:00 +20°C° 0 mm 2 m/S 752 mmHg 82%
    22:00 +19°C° 0 mm 2 m/S 752 mmHg 83%
    23:00 +18°C° 0 mm 2 m/S 753 mmHg 84%

    26 Juli, Freitag

    Zeit Temperatur Niederschläge Wind Luftdruck Luftfeuchtigkeit
    00:00 +17°C° 0 mm 2 m/S 753 mmHg 84%
    01:00 +17°C° 0 mm 2 m/S 753 mmHg 85%
    02:00 +16°C° 0 mm 2 m/S 753 mmHg 85%
    03:00 +16°C° 0 mm 2 m/S 753 mmHg 87%
    04:00 +16°C° 0 mm 2 m/S 753 mmHg 89%
    05:00 +16°C° 0 mm 2 m/S 753 mmHg 90%
    06:00 +18°C° 0 mm 2 m/S 753 mmHg 85%
    07:00 +20°C° 0 mm 3 m/S 753 mmHg 80%
    08:00 +21°C° 0 mm 3 m/S 753 mmHg 76%
    09:00 +24°C° 0 mm 3 m/S 753 mmHg 68%
    10:00 +26°C° 0 mm 3 m/S 753 mmHg 60%
    11:00 +27°C° 0 mm 3 m/S 753 mmHg 53%
    12:00 +28°C° 0 mm 3 m/S 752 mmHg 52%
    13:00 +28°C° 0 mm 3 m/S 752 mmHg 51%
    14:00 +29°C° 0 mm 3 m/S 752 mmHg 50%
    15:00 +28°C° 0 mm 3 m/S 752 mmHg 53%
    16:00 +28°C° 0 mm 3 m/S 751 mmHg 56%
    17:00 +28°C° 0 mm 3 m/S 751 mmHg 59%
    18:00 +26°C° 0 mm 3 m/S 751 mmHg 67%
    19:00 +24°C° 0 mm 2 m/S 751 mmHg 75%
    20:00 +21°C° 0 mm 2 m/S 751 mmHg 83%
    21:00 +21°C° 0 mm 2 m/S 751 mmHg 86%
    22:00 +20°C° 0 mm 2 m/S 751 mmHg 88%
    23:00 +19°C° 0 mm 2 m/S 752 mmHg 90%
    Mehr zeigen